This is the latest recevied weather packets stored in our database for station/object SR1WXW. If no packets are shown the sender has not sent any weather packets the latest 10 day(s).
| Time | Temp. | Humidity | Pressure | Rain* | Wind** | Luminosity | Snow |
|---|---|---|---|---|---|---|---|
| 1777455502 | 10° C | 36% | 1026.5 hPa | 0 mm | - | - | - |
| 1777455202 | 10° C | 36% | 1026.5 hPa | 0 mm | - | - | - |
| 1777454902 | 10° C | 37% | 1026.6 hPa | 0 mm | - | - | - |
| 1777454602 | 10° C | 37% | 1026.6 hPa | 0 mm | - | - | - |
| 1777454302 | 10° C | 37% | 1026.5 hPa | 0 mm | - | - | - |
| 1777454002 | 10° C | 37% | 1026.7 hPa | 0 mm | - | - | - |
| 1777453702 | 9.44° C | 37% | 1026.5 hPa | 0 mm | - | - | - |
| 1777453402 | 10° C | 37% | 1026.4 hPa | 0 mm | - | - | - |
| 1777453102 | 10° C | 37% | 1026.6 hPa | 0 mm | - | - | - |
| 1777452802 | 10° C | 36% | 1026.5 hPa | 0 mm | - | - | - |
| 1777452502 | 10.56° C | 36% | 1026.6 hPa | 0 mm | - | - | - |
| 1777452202 | 10.56° C | 36% | 1026.6 hPa | 0 mm | - | - | - |
| 1777451902 | 11.11° C | 35% | 1026.5 hPa | 0 mm | - | - | - |
| 1777451602 | 11.11° C | 35% | 1026.6 hPa | 0 mm | - | - | - |
| 1777451302 | 12.22° C | 34% | 1026.6 hPa | 0 mm | - | - | - |
| 1777451002 | 13.33° C | 33% | 1026.6 hPa | 0 mm | - | - | - |
| 1777450702 | 13.89° C | 32% | 1026.6 hPa | 0 mm | - | - | - |
| 1777450402 | 15° C | 33% | 1026.6 hPa | 0 mm | - | - | - |
| 1777450102 | 16.11° C | 33% | 1026.5 hPa | 0 mm | - | - | - |
| 1777449802 | 15.56° C | 35% | 1026.5 hPa | 0 mm | - | - | - |
| 1777449502 | 15° C | 36% | 1026.4 hPa | 0 mm | - | - | - |
| 1777449202 | 14.44° C | 36% | 1026.3 hPa | 0 mm | - | - | - |
| 1777448902 | 14.44° C | 36% | 1026.3 hPa | 0 mm | - | - | - |
| 1777448602 | 14.44° C | 36% | 1026.2 hPa | 0 mm | - | - | - |
| 1777448302 | 14.44° C | 38% | 1026.2 hPa | 0 mm | - | - | - |
* Rain latest hour (hover to see other rain measurements)
** Current wind speed in m/s (hover to see current wind gust speed)